Location: De Har
(53.3413°N, 6.6858°E)
Time: 17:38:20
(UTC+00:00)

BREEZE-M DEB (TANK) - Pass Details

Date: 22 April 2026
Orbit: 323 x 11637 km, 49.6° (Epoch: 9 May)

Event Time Altitude Azimuth Distance (km) Brightness Sun altitude
Exits shadow 03:30:49 - 229° (SW) 3,479 5.5 -7.2°
Reaches altitude 10° 03:31:47 10° 227° (SW) 3,046 5.2 -7.0°
Maximum altitude 03:36:58 29° 167° (SSE) 1,067 3.4 -6.4°
Drops below altitude 10° 03:39:34 10° 103° (ESE) 1,475 5.1 -6.0°
Sets 03:41:10 0° 89° (E) 2,154 6.4 -5.8°
